When you browse on this site, cookies collect data to enhance your experience and personalize the content and advertising you see.
Visit our Privacy Policy to learn more. By continuing to use the site, you agree to this use of cookies and data.
  • In Spain
  • List of Countries
  • For 7 days
  • Water Temperature
  • Weather Map
  • Weather Widgets
  • user-avatar
    Login

    Hourly Weather Rio Bueno

    Today, 23 January, Thursday

    Time Temperature Precipitation Wind Pressure Humidity
    00:00 +14°C° 0 mm 1 mps 756 mmHg 88%
    01:00 +13°C° 0 mm 1 mps 756 mmHg 93%
    02:00 +13°C° 0 mm 1 mps 757 mmHg 95%
    03:00 +12°C° 0 mm 1 mps 757 mmHg 96%
    04:00 +11°C° 0 mm 0 mps 758 mmHg 98%
    05:00 +13°C° 0 mm 1 mps 758 mmHg 93%
    06:00 +15°C° 0 mm 1 mps 758 mmHg 88%
    07:00 +16°C° 0 mm 1 mps 758 mmHg 83%
    08:00 +20°C° 0 mm 1 mps 759 mmHg 72%
    09:00 +22°C° 0 mm 1 mps 759 mmHg 62%
    10:00 +24°C° 0 mm 1 mps 759 mmHg 51%
    11:00 +26°C° 0 mm 2 mps 759 mmHg 45%
    12:00 +28°C° 0 mm 2 mps 759 mmHg 39%
    13:00 +30°C° 0 mm 2 mps 759 mmHg 34%
    14:00 +29°C° 0 mm 3 mps 759 mmHg 34%
    15:00 +28°C° 0 mm 3 mps 759 mmHg 34%
    16:00 +28°C° 0 mm 4 mps 759 mmHg 35%
    17:00 +26°C° 0 mm 3 mps 759 mmHg 41%
    18:00 +23°C° 0 mm 2 mps 759 mmHg 47%
    19:00 +20°C° 0 mm 2 mps 760 mmHg 54%
    20:00 +19°C° 0 mm 1 mps 760 mmHg 63%
    21:00 +15°C° 0 mm 1 mps 760 mmHg 73%
    22:00 +13°C° 0 mm 1 mps 760 mmHg 82%
    23:00 +12°C° 0 mm 1 mps 760 mmHg 87%

    Tomorrow, 24 January, Friday

    Time Temperature Precipitation Wind Pressure Humidity
    00:00 +11°C° 0 mm 1 mps 760 mmHg 92%
    01:00 +9°C° 0 mm 0 mps 760 mmHg 96%
    02:00 +8°C° 0 mm 0 mps 760 mmHg 97%
    03:00 +8°C° 0 mm 0 mps 760 mmHg 97%
    04:00 +8°C° 0 mm 0 mps 760 mmHg 98%
    05:00 +10°C° 0 mm 1 mps 760 mmHg 91%
    06:00 +12°C° 0 mm 1 mps 760 mmHg 84%
    07:00 +14°C° 0 mm 1 mps 760 mmHg 77%
    08:00 +18°C° 0 mm 1 mps 760 mmHg 63%
    09:00 +21°C° 0 mm 1 mps 760 mmHg 49%
    10:00 +24°C° 0 mm 1 mps 760 mmHg 34%
    11:00 +26°C° 0 mm 1 mps 760 mmHg 31%
    12:00 +27°C° 0 mm 1 mps 759 mmHg 28%
    13:00 +28°C° 0 mm 2 mps 759 mmHg 24%
    14:00 +28°C° 0 mm 2 mps 759 mmHg 26%
    15:00 +27°C° 0 mm 2 mps 759 mmHg 27%
    16:00 +27°C° 0 mm 3 mps 759 mmHg 28%
    17:00 +25°C° 0 mm 2 mps 760 mmHg 36%
    18:00 +21°C° 0 mm 2 mps 760 mmHg 43%
    19:00 +19°C° 0 mm 2 mps 761 mmHg 51%
    20:00 +17°C° 0 mm 2 mps 761 mmHg 59%
    21:00 +15°C° 0 mm 1 mps 761 mmHg 66%
    22:00 +14°C° 0 mm 1 mps 761 mmHg 74%
    23:00 +13°C° 0 mm 1 mps 761 mmHg 75%

    Day after tomorrow, 25 January, Saturday

    Time Temperature Precipitation Wind Pressure Humidity
    00:00 +13°C° 0 mm 1 mps 761 mmHg 76%
    01:00 +13°C° 0 mm 1 mps 760 mmHg 78%
    02:00 +13°C° 0 mm 1 mps 760 mmHg 79%
    03:00 +11°C° 0 mm 0 mps 760 mmHg 81%
    04:00 +11°C° 0 mm 0 mps 760 mmHg 82%
    05:00 +13°C° 0 mm 0 mps 760 mmHg 77%
    06:00 +14°C° 0 mm 0 mps 760 mmHg 71%
    07:00 +16°C° 0 mm 0 mps 760 mmHg 65%
    08:00 +20°C° 0 mm 1 mps 760 mmHg 60%
    09:00 +22°C° 0 mm 1 mps 760 mmHg 55%
    10:00 +24°C° 0 mm 2 mps 760 mmHg 50%
    11:00 +25°C° 0 mm 2 mps 760 mmHg 48%
    12:00 +26°C° 0 mm 2 mps 759 mmHg 47%
    13:00 +27°C° 0 mm 2 mps 759 mmHg 46%
    14:00 +27°C° 0 mm 2 mps 759 mmHg 45%
    15:00 +27°C° 0 mm 2 mps 759 mmHg 45%
    16:00 +27°C° 0 mm 3 mps 758 mmHg 45%
    17:00 +25°C° 0 mm 2 mps 759 mmHg 53%
    18:00 +23°C° 0 mm 2 mps 759 mmHg 60%
    19:00 +21°C° 0 mm 1 mps 759 mmHg 68%
    20:00 +20°C° 0 mm 1 mps 759 mmHg 75%
    21:00 +18°C° 0 mm 1 mps 760 mmHg 81%
    22:00 +15°C° 0 mm 0 mps 760 mmHg 88%
    23:00 +15°C° 0 mm 0 mps 760 mmHg 90%

    26 January, Sunday

    Time Temperature Precipitation Wind Pressure Humidity
    00:00 +14°C° 0 mm 0 mps 759 mmHg 93%
    01:00 +14°C° 0 mm 0 mps 759 mmHg 96%
    02:00 +14°C° 0 mm 0 mps 759 mmHg 97%
    03:00 +13°C° 0 mm 0 mps 759 mmHg 97%
    04:00 +13°C° 0 mm 0 mps 759 mmHg 98%
    05:00 +15°C° 0 mm 0 mps 759 mmHg 92%
    06:00 +16°C° 0 mm 0 mps 759 mmHg 86%
    07:00 +17°C° 0 mm 0 mps 759 mmHg 80%
    08:00 +18°C° 0 mm 0 mps 759 mmHg 77%
    09:00 +19°C° 0 mm 0 mps 759 mmHg 74%
    10:00 +19°C° 0 mm 0 mps 759 mmHg 71%
    11:00 +23°C° 0 mm 1 mps 759 mmHg 66%
    12:00 +24°C° 0 mm 1 mps 759 mmHg 62%
    13:00 +25°C° 0 mm 1 mps 759 mmHg 57%
    14:00 +26°C° 0 mm 1 mps 759 mmHg 55%
    15:00 +26°C° 0 mm 1 mps 759 mmHg 53%
    16:00 +27°C° 0 mm 1 mps 759 mmHg 50%
    17:00 +25°C° 0 mm 1 mps 759 mmHg 52%
    18:00 +23°C° 0 mm 1 mps 759 mmHg 54%
    19:00 +20°C° 0 mm 2 mps 760 mmHg 56%
    20:00 +19°C° 0 mm 1 mps 760 mmHg 62%
    21:00 +16°C° 0 mm 1 mps 760 mmHg 67%
    22:00 +14°C° 0 mm 1 mps 761 mmHg 73%
    23:00 +12°C° 0 mm 1 mps 761 mmHg 77%

    27 January, Monday

    Time Temperature Precipitation Wind Pressure Humidity
    00:00 +11°C° 0 mm 1 mps 760 mmHg 82%
    01:00 +10°C° 0 mm 1 mps 760 mmHg 87%
    02:00 +9°C° 0 mm 1 mps 760 mmHg 89%
    03:00 +7°C° 0 mm 0 mps 760 mmHg 92%
    04:00 +7°C° 0 mm 0 mps 760 mmHg 94%
    05:00 +8°C° 0 mm 0 mps 759 mmHg 87%
    06:00 +11°C° 0 mm 1 mps 759 mmHg 80%
    07:00 +13°C° 0 mm 1 mps 759 mmHg 73%
    08:00 +16°C° 0 mm 1 mps 759 mmHg 62%
    09:00 +20°C° 0 mm 1 mps 759 mmHg 52%
    10:00 +24°C° 0 mm 1 mps 758 mmHg 41%
    11:00 +26°C° 0 mm 1 mps 758 mmHg 35%
    12:00 +27°C° 0 mm 1 mps 758 mmHg 29%
    13:00 +29°C° 0 mm 1 mps 757 mmHg 23%
    14:00 +29°C° 0 mm 2 mps 757 mmHg 23%
    15:00 +30°C° 0 mm 2 mps 757 mmHg 22%
    16:00 +30°C° 0 mm 2 mps 757 mmHg 21%
    17:00 +27°C° 0 mm 2 mps 757 mmHg 26%
    18:00 +23°C° 0 mm 2 mps 757 mmHg 31%
    19:00 +19°C° 0 mm 2 mps 757 mmHg 36%
    20:00 +18°C° 0 mm 1 mps 758 mmHg 42%
    21:00 +15°C° 0 mm 1 mps 758 mmHg 47%
    22:00 +12°C° 0 mm 0 mps 758 mmHg 53%
    23:00 +13°C° 0 mm 0 mps 757 mmHg 54%

    28 January, Tuesday

    Time Temperature Precipitation Wind Pressure Humidity
    00:00 +14°C° 0 mm 1 mps 757 mmHg 55%
    01:00 +14°C° 0 mm 1 mps 757 mmHg 57%
    02:00 +14°C° 0 mm 1 mps 756 mmHg 56%
    03:00 +15°C° 0 mm 1 mps 756 mmHg 56%
    04:00 +15°C° 0 mm 1 mps 756 mmHg 55%
    05:00 +15°C° 0.3 mm 1 mps 756 mmHg 67%
    06:00 +14°C° 0.3 mm 1 mps 756 mmHg 79%
    07:00 +13°C° 0.3 mm 1 mps 756 mmHg 90%
    08:00 +14°C° 0.4 mm 1 mps 756 mmHg 91%
    09:00 +14°C° 0.4 mm 1 mps 757 mmHg 92%
    10:00 +15°C° 0.4 mm 1 mps 757 mmHg 93%
    11:00 +18°C° 0.1 mm 1 mps 757 mmHg 83%
    12:00 +21°C° 0.1 mm 1 mps 757 mmHg 73%
    13:00 +23°C° 0.1 mm 1 mps 757 mmHg 63%
    14:00 +23°C° 0.5 mm 1 mps 757 mmHg 61%
    15:00 +23°C° 0.5 mm 2 mps 757 mmHg 60%
    16:00 +23°C° 0.5 mm 2 mps 757 mmHg 58%
    17:00 +20°C° 0.1 mm 2 mps 757 mmHg 64%
    18:00 +18°C° 0.1 mm 2 mps 757 mmHg 69%
    19:00 +16°C° 0.1 mm 2 mps 758 mmHg 74%
    20:00 +15°C° 0 mm 2 mps 758 mmHg 79%
    21:00 +14°C° 0 mm 1 mps 759 mmHg 84%
    22:00 +12°C° 0 mm 1 mps 759 mmHg 88%
    23:00 +11°C° 0 mm 1 mps 759 mmHg 91%
    Show more